UAL1738 KLAX-KSFO

Flight info

Callsign UAL1738
Flight time 0h 53m
Altitude 36000
Route SUMMR2 STOKD SERFR SERFR4
Aircraft A20N/M-SDE2E3FGHIRWXY/LB1

Departure

Time 2026-04-20 00:52
Airport Los Angeles International Airport (KLAX)

Arrival

Time 2026-04-20 01:45
Airport San Francisco International Airport (KSFO)
Time Latitude Longitude Altitude Speed Heading
2026-04-20 00:24 33.94095 -118.40380 95 ft 0 kts 259°
2026-04-20 00:38 33.94099 -118.40353 95 ft 4 kts 256°
2026-04-20 00:39 33.94105 -118.40334 93 ft 2 kts 221°
2026-04-20 00:39 33.94115 -118.40327 95 ft 2 kts 180°
2026-04-20 00:39 33.94126 -118.40328 94 ft 2 kts 174°
2026-04-20 00:39 33.94134 -118.40329 94 ft 0 kts 173°
2026-04-20 00:43 33.94132 -118.40328 94 ft 2 kts 173°
2026-04-20 00:43 33.94107 -118.40325 95 ft 5 kts 173°
2026-04-20 00:43 33.94062 -118.40319 95 ft 8 kts 173°
2026-04-20 00:43 33.94001 -118.40307 97 ft 10 kts 169°
2026-04-20 00:44 33.93931 -118.40295 99 ft 10 kts 175°
2026-04-20 00:44 33.93870 -118.40278 102 ft 7 kts 137°
2026-04-20 00:44 33.93857 -118.40225 103 ft 7 kts 92°
2026-04-20 00:44 33.93864 -118.40139 104 ft 13 kts 83°
2026-04-20 00:45 33.93877 -118.40015 104 ft 17 kts 83°
2026-04-20 00:45 33.93892 -118.39863 103 ft 20 kts 83°
2026-04-20 00:45 33.93910 -118.39692 103 ft 21 kts 84°
2026-04-20 00:45 33.93929 -118.39510 102 ft 23 kts 83°
2026-04-20 00:46 33.93948 -118.39326 101 ft 21 kts 83°
2026-04-20 00:46 33.93967 -118.39146 101 ft 21 kts 83°
2026-04-20 00:46 33.93983 -118.38974 100 ft 21 kts 83°
2026-04-20 00:46 33.94002 -118.38789 101 ft 23 kts 83°
2026-04-20 00:47 33.94022 -118.38598 103 ft 23 kts 84°
2026-04-20 00:47 33.94042 -118.38407 103 ft 21 kts 82°
2026-04-20 00:47 33.94061 -118.38221 103 ft 24 kts 82°
2026-04-20 00:47 33.94078 -118.38060 102 ft 14 kts 82°
2026-04-20 00:48 33.94078 -118.38028 102 ft 0 kts 116°
2026-04-20 00:49 33.94078 -118.38027 102 ft 1 kts 116°
2026-04-20 00:49 33.94061 -118.38008 103 ft 5 kts 144°
2026-04-20 00:50 33.94024 -118.37996 108 ft 7 kts 172°
2026-04-20 00:50 33.93986 -118.38028 109 ft 8 kts 250°
2026-04-20 00:50 33.93983 -118.38040 109 ft 0 kts 260°
2026-04-20 00:51 33.93981 -118.38059 109 ft 13 kts 261°
2026-04-20 00:51 33.93939 -118.38466 108 ft 83 kts 262°
2026-04-20 00:51 33.93846 -118.39383 107 ft 137 kts 263°
2026-04-20 00:51 33.93721 -118.40656 389 ft 156 kts 262°
2026-04-20 00:52 33.93596 -118.41946 1103 ft 154 kts 262°
2026-04-20 00:52 33.93460 -118.43248 1711 ft 160 kts 261°
2026-04-20 00:52 33.93309 -118.44639 2143 ft 178 kts 261°
2026-04-20 00:52 33.93141 -118.46209 2514 ft 201 kts 261°
2026-04-20 00:53 33.92977 -118.47983 2897 ft 227 kts 262°
2026-04-20 00:53 33.92818 -118.49960 3374 ft 252 kts 263°
2026-04-20 00:53 33.92647 -118.52145 3972 ft 270 kts 263°
2026-04-20 00:53 33.92468 -118.54427 4897 ft 276 kts 262°
2026-04-20 00:54 33.92281 -118.56750 5878 ft 279 kts 262°
2026-04-20 00:54 33.92091 -118.59081 6851 ft 281 kts 262°
2026-04-20 00:54 33.91897 -118.61432 7805 ft 283 kts 262°
2026-04-20 00:54 33.91766 -118.63818 8741 ft 287 kts 267°
2026-04-20 00:55 33.91766 -118.66207 9687 ft 290 kts 267°
2026-04-20 00:55 33.91763 -118.68659 10451 ft 299 kts 267°
2026-04-20 00:55 33.91752 -118.71270 10792 ft 322 kts 267°
2026-04-20 00:55 33.91738 -118.74057 11161 ft 341 kts 267°
2026-04-20 00:56 33.91727 -118.76953 11540 ft 347 kts 267°
2026-04-20 00:56 33.91717 -118.79861 11698 ft 346 kts 267°
2026-04-20 00:56 33.91706 -118.82734 11820 ft 347 kts 267°
2026-04-20 00:56 33.91721 -118.85648 11951 ft 348 kts 269°
2026-04-20 00:57 33.91810 -118.88588 12397 ft 353 kts 270°
2026-04-20 00:57 33.91920 -118.91556 12729 ft 352 kts 270°
2026-04-20 00:57 33.92025 -118.94508 12894 ft 353 kts 270°
2026-04-20 00:57 33.92121 -118.97427 12994 ft 354 kts 269°
2026-04-20 00:58 33.92385 -119.00383 13000 ft 356 kts 279°
2026-04-20 00:58 33.93157 -119.03223 13002 ft 359 kts 292°
2026-04-20 00:58 33.94406 -119.05855 13148 ft 365 kts 300°
2026-04-20 00:58 33.95765 -119.08454 13912 ft 366 kts 300°
2026-04-20 00:59 33.97114 -119.11060 14716 ft 368 kts 299°
2026-04-20 00:59 33.98453 -119.13660 15455 ft 371 kts 299°
2026-04-20 00:59 33.99846 -119.16298 16200 ft 375 kts 303°
2026-04-20 00:59 34.01531 -119.18729 16922 ft 381 kts 312°
2026-04-20 01:00 34.03547 -119.20835 17631 ft 386 kts 321°
2026-04-20 01:00 34.05759 -119.22715 18327 ft 390 kts 322°
2026-04-20 01:00 34.07987 -119.24618 18959 ft 392 kts 322°
2026-04-20 01:00 34.10189 -119.26510 19605 ft 394 kts 322°
2026-04-20 01:01 34.12423 -119.28433 20255 ft 396 kts 322°
2026-04-20 01:01 34.14675 -119.30374 20886 ft 398 kts 322°
2026-04-20 01:01 34.16934 -119.32322 21525 ft 400 kts 322°
2026-04-20 01:01 34.19213 -119.34287 22158 ft 402 kts 322°
2026-04-20 01:02 34.21498 -119.36258 22766 ft 405 kts 322°
2026-04-20 01:02 34.23803 -119.38248 23380 ft 407 kts 322°
2026-04-20 01:02 34.26088 -119.40223 23906 ft 409 kts 322°
2026-04-20 01:02 34.28411 -119.42232 24426 ft 411 kts 322°
2026-04-20 01:03 34.30749 -119.44255 24929 ft 413 kts 322°
2026-04-20 01:03 34.33098 -119.46288 25414 ft 415 kts 322°
2026-04-20 01:03 34.35447 -119.48323 25901 ft 417 kts 322°
2026-04-20 01:03 34.37818 -119.50379 26369 ft 419 kts 322°
2026-04-20 01:04 34.40160 -119.52436 26826 ft 420 kts 320°
2026-04-20 01:04 34.42362 -119.54760 27273 ft 420 kts 313°
2026-04-20 01:04 34.44412 -119.57296 27707 ft 422 kts 312°
2026-04-20 01:04 34.46454 -119.59812 28127 ft 424 kts 312°
2026-04-20 01:05 34.48533 -119.62364 28515 ft 426 kts 312°
2026-04-20 01:05 34.50625 -119.64934 28938 ft 428 kts 312°
2026-04-20 01:05 34.52727 -119.67518 29339 ft 429 kts 312°
2026-04-20 01:05 34.54829 -119.70107 29718 ft 432 kts 312°
2026-04-20 01:06 34.56913 -119.72677 30109 ft 433 kts 312°
2026-04-20 01:06 34.59034 -119.75294 30439 ft 435 kts 312°
2026-04-20 01:06 34.61155 -119.77915 30751 ft 437 kts 312°
2026-04-20 01:06 34.63292 -119.80557 31086 ft 438 kts 312°
2026-04-20 01:07 34.65429 -119.83200 31518 ft 436 kts 312°
2026-04-20 01:07 34.67554 -119.85831 31976 ft 435 kts 312°
2026-04-20 01:07 34.69642 -119.88417 32442 ft 432 kts 312°
2026-04-20 01:07 34.71747 -119.91027 32899 ft 430 kts 312°
2026-04-20 01:08 34.73844 -119.93630 33372 ft 428 kts 311°
2026-04-20 01:08 34.75920 -119.96208 33812 ft 426 kts 311°
2026-04-20 01:08 34.77996 -119.98789 34154 ft 424 kts 311°
2026-04-20 01:08 34.80057 -120.01353 34473 ft 423 kts 311°
2026-04-20 01:09 34.82087 -120.03880 34770 ft 423 kts 311°
2026-04-20 01:09 34.84168 -120.06471 35044 ft 422 kts 311°
2026-04-20 01:09 34.86221 -120.09031 35314 ft 422 kts 311°
2026-04-20 01:09 34.88244 -120.11555 35616 ft 421 kts 311°
2026-04-20 01:10 34.90293 -120.14114 35876 ft 421 kts 311°
2026-04-20 01:10 34.96390 -120.21738 35971 ft 419 kts 311°
2026-04-20 01:11 35.00465 -120.26844 35968 ft 419 kts 310°
2026-04-20 01:11 35.04529 -120.31943 35965 ft 419 kts 310°
2026-04-20 01:12 35.08575 -120.37029 35965 ft 419 kts 310°
2026-04-20 01:12 35.12818 -120.41953 35960 ft 421 kts 314°
2026-04-20 01:13 35.16452 -120.45926 35963 ft 421 kts 314°
2026-04-20 01:13 35.20805 -120.50755 35961 ft 422 kts 313°
2026-04-20 01:14 35.25111 -120.55584 35964 ft 422 kts 313°
2026-04-20 01:14 35.29443 -120.60457 35973 ft 422 kts 313°
2026-04-20 01:15 35.33774 -120.65338 35975 ft 423 kts 313°
2026-04-20 01:15 35.38069 -120.70182 35977 ft 422 kts 313°
2026-04-20 01:16 35.42400 -120.75076 35983 ft 422 kts 313°
2026-04-20 01:16 35.46726 -120.79971 35986 ft 421 kts 313°
2026-04-20 01:17 35.51268 -120.84515 35980 ft 425 kts 318°
2026-04-20 01:17 35.55990 -120.88884 35977 ft 424 kts 318°
2026-04-20 01:18 35.60696 -120.93259 35972 ft 423 kts 318°
2026-04-20 01:18 35.65365 -120.97604 35965 ft 423 kts 318°
2026-04-20 01:19 35.70058 -121.01975 35959 ft 422 kts 318°
2026-04-20 01:19 35.74742 -121.06344 35953 ft 422 kts 317°
2026-04-20 01:20 35.79406 -121.10701 35949 ft 422 kts 317°
2026-04-20 01:20 35.84103 -121.15095 35949 ft 423 kts 317°
2026-04-20 01:21 35.88771 -121.19469 35940 ft 423 kts 317°
2026-04-20 01:21 35.93465 -121.23874 35940 ft 424 kts 317°
2026-04-20 01:22 35.98178 -121.28304 35951 ft 425 kts 317°
2026-04-20 01:22 36.02873 -121.32725 35520 ft 428 kts 317°
2026-04-20 01:23 36.05257 -121.34972 34830 ft 432 kts 317°
2026-04-20 01:23 36.07718 -121.37172 33884 ft 442 kts 322°
2026-04-20 01:23 36.10356 -121.39221 32756 ft 450 kts 323°
2026-04-20 01:23 36.12982 -121.41258 32005 ft 450 kts 323°
2026-04-20 01:24 36.15642 -121.43327 31168 ft 452 kts 323°
2026-04-20 01:24 36.18296 -121.45394 30621 ft 446 kts 323°
2026-04-20 01:24 36.20919 -121.47440 29986 ft 444 kts 323°
2026-04-20 01:24 36.23517 -121.49469 29380 ft 439 kts 323°
2026-04-20 01:25 36.26053 -121.51452 28813 ft 433 kts 323°
2026-04-20 01:25 36.28586 -121.53436 28228 ft 429 kts 323°
2026-04-20 01:25 36.31095 -121.55403 27652 ft 424 kts 322°
2026-04-20 01:25 36.33584 -121.57356 27083 ft 420 kts 322°
2026-04-20 01:26 36.36042 -121.59287 26510 ft 416 kts 322°
2026-04-20 01:26 36.38482 -121.61205 25955 ft 413 kts 322°
2026-04-20 01:26 36.40884 -121.63094 25382 ft 411 kts 322°
2026-04-20 01:26 36.43300 -121.64997 24810 ft 411 kts 322°
2026-04-20 01:27 36.45723 -121.66906 24213 ft 411 kts 322°
2026-04-20 01:27 36.48134 -121.68806 23631 ft 411 kts 322°
2026-04-20 01:27 36.50543 -121.70705 23211 ft 409 kts 322°
2026-04-20 01:27 36.52993 -121.72645 22859 ft 422 kts 322°
2026-04-20 01:28 36.55480 -121.74613 22574 ft 418 kts 323°
2026-04-20 01:28 36.57882 -121.76507 22055 ft 410 kts 323°
2026-04-20 01:28 36.60285 -121.78406 21268 ft 406 kts 322°
2026-04-20 01:28 36.62655 -121.80283 20601 ft 402 kts 323°
2026-04-20 01:29 36.65016 -121.82156 20065 ft 400 kts 323°
2026-04-20 01:29 36.67355 -121.84013 19516 ft 398 kts 323°
2026-04-20 01:29 36.69686 -121.85865 18963 ft 397 kts 323°
2026-04-20 01:29 36.71989 -121.87683 18427 ft 396 kts 325°
2026-04-20 01:30 36.74474 -121.89214 17898 ft 397 kts 334°
2026-04-20 01:30 36.77111 -121.90256 17344 ft 398 kts 344°
2026-04-20 01:30 36.79812 -121.90993 16788 ft 396 kts 345°
2026-04-20 01:30 36.82504 -121.91741 16248 ft 394 kts 344°
2026-04-20 01:31 36.85173 -121.92489 15699 ft 392 kts 345°
2026-04-20 01:31 36.87808 -121.93229 15152 ft 391 kts 345°
2026-04-20 01:31 36.90473 -121.93977 14603 ft 389 kts 345°
2026-04-20 01:31 36.93117 -121.94718 14141 ft 384 kts 345°
2026-04-20 01:32 36.95687 -121.95492 13500 ft 376 kts 340°
2026-04-20 01:32 36.98137 -121.96459 12968 ft 372 kts 340°
2026-04-20 01:32 37.00607 -121.97426 12451 ft 370 kts 340°
2026-04-20 01:32 37.03063 -121.98384 11931 ft 368 kts 340°
2026-04-20 01:33 37.05509 -121.99336 11412 ft 367 kts 340°
2026-04-20 01:33 37.07956 -122.00290 10890 ft 366 kts 340°
2026-04-20 01:33 37.10343 -122.01221 10541 ft 360 kts 340°
2026-04-20 01:33 37.12726 -122.02152 10114 ft 355 kts 340°
2026-04-20 01:34 37.15067 -122.03066 9896 ft 345 kts 340°
2026-04-20 01:34 37.17310 -122.03943 9772 ft 332 kts 340°
2026-04-20 01:34 37.19479 -122.04792 9601 ft 320 kts 340°
2026-04-20 01:34 37.21560 -122.05707 9123 ft 315 kts 336°
2026-04-20 01:35 37.23584 -122.06725 8531 ft 312 kts 339°
2026-04-20 01:35 37.25633 -122.07530 7922 ft 312 kts 340°
2026-04-20 01:35 37.27690 -122.08365 7381 ft 308 kts 341°
2026-04-20 01:35 37.29736 -122.09166 6761 ft 308 kts 342°
2026-04-20 01:36 37.31786 -122.09920 6260 ft 304 kts 343°
2026-04-20 01:36 37.33784 -122.10619 6032 ft 289 kts 344°
2026-04-20 01:36 37.35652 -122.11259 5988 ft 266 kts 344°
2026-04-20 01:36 37.37344 -122.11832 5975 ft 243 kts 344°
2026-04-20 01:37 37.38895 -122.12359 5982 ft 219 kts 344°
2026-04-20 01:37 37.40294 -122.12836 5837 ft 197 kts 344°
2026-04-20 01:37 37.41561 -122.13269 5638 ft 178 kts 344°
2026-04-20 01:37 37.42720 -122.13667 5358 ft 171 kts 343°
2026-04-20 01:38 37.43866 -122.14060 5016 ft 169 kts 343°
2026-04-20 01:38 37.45000 -122.14449 4660 ft 168 kts 343°
2026-04-20 01:38 37.46127 -122.14836 4336 ft 166 kts 343°
2026-04-20 01:38 37.47230 -122.15214 4021 ft 165 kts 342°
2026-04-20 01:39 37.48330 -122.15590 3729 ft 163 kts 343°
2026-04-20 01:39 37.49416 -122.15964 3408 ft 161 kts 342°
2026-04-20 01:39 37.50481 -122.16328 3154 ft 154 kts 342°
2026-04-20 01:39 37.51516 -122.16684 3115 ft 158 kts 342°
2026-04-20 01:40 37.52588 -122.17077 3098 ft 158 kts 335°
2026-04-20 01:40 37.53472 -122.17829 3041 ft 151 kts 307°
2026-04-20 01:40 37.54085 -122.18899 2857 ft 148 kts 293°
2026-04-20 01:40 37.54553 -122.20032 2680 ft 144 kts 289°
2026-04-20 01:41 37.55004 -122.21120 2501 ft 140 kts 291°
2026-04-20 01:41 37.55459 -122.22210 2330 ft 139 kts 291°
2026-04-20 01:41 37.55909 -122.23282 2154 ft 138 kts 291°
2026-04-20 01:41 37.56359 -122.24357 1975 ft 138 kts 290°
2026-04-20 01:42 37.56807 -122.25425 1802 ft 137 kts 291°
2026-04-20 01:42 37.57255 -122.26493 1626 ft 137 kts 291°
2026-04-20 01:42 37.57699 -122.27553 1444 ft 137 kts 293°
2026-04-20 01:42 37.58144 -122.28616 1272 ft 136 kts 293°
2026-04-20 01:43 37.58577 -122.29649 1083 ft 134 kts 293°
2026-04-20 01:43 37.59010 -122.30681 916 ft 133 kts 294°
2026-04-20 01:43 37.59434 -122.31695 747 ft 128 kts 294°
2026-04-20 01:43 37.59849 -122.32685 588 ft 127 kts 292°
2026-04-20 01:44 37.60264 -122.33677 424 ft 127 kts 291°
2026-04-20 01:44 37.60672 -122.34648 283 ft 123 kts 289°
2026-04-20 01:44 37.61058 -122.35573 117 ft 123 kts 289°
2026-04-20 01:44 37.61447 -122.36514 22 ft 114 kts 296°
2026-04-20 01:45 37.61747 -122.37235 23 ft 71 kts 298°
2026-04-20 01:45 37.61927 -122.37639 23 ft 38 kts 296°
2026-04-20 01:45 37.61999 -122.37840 22 ft 17 kts 275°
2026-04-20 01:45 37.61947 -122.37960 23 ft 16 kts 228°
2026-04-20 01:46 37.61915 -122.38077 22 ft 14 kts 284°
2026-04-20 01:46 37.61963 -122.38196 22 ft 16 kts 299°
2026-04-20 01:46 37.62019 -122.38329 22 ft 18 kts 298°
2026-04-20 01:46 37.62080 -122.38475 22 ft 20 kts 298°
2026-04-20 01:47 37.62147 -122.38636 22 ft 21 kts 297°
2026-04-20 01:47 37.62220 -122.38805 22 ft 22 kts 295°
2026-04-20 01:47 37.62264 -122.38952 22 ft 16 kts 260°
2026-04-20 01:47 37.62230 -122.39088 22 ft 16 kts 246°
2026-04-20 01:48 37.62138 -122.39168 22 ft 17 kts 207°
2026-04-20 01:48 37.62036 -122.39200 24 ft 14 kts 138°
2026-04-20 01:48 37.61987 -122.39080 22 ft 17 kts 121°
2026-04-20 01:48 37.61940 -122.38946 22 ft 17 kts 82°
2026-04-20 01:49 37.62001 -122.38885 22 ft 2 kts 26°